GFSMA_con_lapse57_021.txt.gz
Lapse_Rate
6.1 6.1 6.0 5.7 5.8 5.9 5.6 5.0 4.8 5.7 6.0 6.2 6.5 6.3 5.7 6.0 5.9 5.9 5.8 5.8 5.6 5.6 5.5 5.4 5.3 5.2 5.1 5.5 5.5 5.3 5.3 5.2 5.2 5.3 5.3 5.2 5.1 5.1 5.0 5.1 5.3 5.2 5.2
6.1 5.9 6.0 5.8 5.7 5.8 5.5 6.0 5.4 5.6 5.9 6.2 6.2 6.5 6.3 6.0 5.9 6.0 5.9 5.7 5.8 5.6 5.4 5.3 5.2 5.1 5.6 5.4 5.5 5.4 5.3 5.2 5.1 5.2 5.2 5.2 5.1 4.9 4.7 5.2 5.2 5.2 5.2
6.1 6.1 6.1 6.0 6.2 6.1 6.1 4.7 6.3 5.6 5.3 5.9 6.3 6.4 6.4 6.4 6.4 5.9 5.9 5.9 5.9 5.8 5.4 5.3 5.4 5.2 5.6 5.7 5.4 5.3 5.3 5.4 5.3 5.2 5.2 5.2 5.2 5.1 4.9 5.0 5.1 5.2 5.2
6.0 6.0 6.0 6.0 5.8 6.0 6.1 6.0 5.7 5.5 5.5 5.6 5.6 6.2 6.5 6.2 6.3 6.2 5.9 6.0 5.8 5.9 5.6 5.4 5.4 5.4 5.4 5.7 5.4 5.4 5.4 5.4 5.4 5.2 5.2 5.2 5.2 5.1 5.0 5.0 5.0 5.1 5.1
5.8 5.9 6.0 6.1 5.7 5.7 5.8 5.7 5.5 5.7 5.3 5.7 5.6 5.7 6.0 6.4 6.2 6.1 6.1 6.0 5.9 5.7 5.7 5.7 5.4 5.0 5.0 5.3 5.2 5.4 5.2 5.3 5.2 5.1 5.1 5.2 5.2 5.1 5.0 5.0 4.9 5.0 5.1
5.8 5.7 5.5 5.2 5.4 5.5 5.5 5.6 5.7 5.4 5.8 5.3 5.3 6.0 6.0 6.0 6.3 6.2 6.1 6.0 5.8 5.9 5.9 6.3 5.7 5.6 5.3 5.2 5.4 5.3 5.3 5.2 5.2 5.0 5.0 5.1 5.1 5.1 5.1 5.1 5.0 5.0 5.0
5.7 5.8 5.5 5.4 5.2 4.9 5.2 4.9 5.8 5.5 5.4 5.2 5.8 5.7 5.9 5.7 6.2 6.2 6.1 6.1 6.0 5.9 5.9 5.7 5.9 5.7 5.5 5.4 5.4 5.5 5.4 5.3 5.2 5.0 5.3 5.1 5.2 5.1 5.1 5.1 5.1 5.1 5.1
5.5 5.5 5.5 5.4 5.2 5.1 5.3 5.3 5.5 5.6 5.5 5.4 5.5 5.5 5.0 5.2 5.4 6.0 6.0 5.9 5.8 5.9 5.9 6.0 5.8 5.6 5.2 5.4 5.3 5.3 5.3 5.3 5.3 5.3 5.5 5.4 5.3 5.2 5.2 5.1 5.2 5.2 5.1
5.5 5.6 5.6 5.5 5.4 5.3 5.3 5.4 5.3 5.4 5.4 5.4 5.5 5.4 5.0 5.1 5.2 5.2 6.1 5.8 5.9 6.0 6.0 5.9 5.7 5.4 5.3 5.3 5.1 5.2 5.4 5.6 5.6 5.4 5.4 5.6 5.4 5.2 5.1 5.1 5.1 5.1 5.1
5.8 5.6 5.6 5.5 5.5 5.6 5.7 5.6 5.3 5.2 5.0 5.2 5.4 5.3 5.3 5.1 5.5 5.7 5.6 5.7 5.8 6.1 6.1 5.9 5.5 5.3 5.3 5.5 5.4 5.5 5.9 5.7 5.6 5.5 5.5 5.5 5.6 5.4 5.2 5.2 5.1 5.1 5.2
5.9 5.5 5.3 5.4 5.5 5.5 5.7 5.6 5.3 5.2 5.0 5.1 5.2 4.9 5.3 5.5 5.6 5.8 5.6 5.5 5.7 5.9 6.0 6.1 6.0 5.7 6.1 5.6 5.6 5.7 5.7 5.8 5.7 5.6 5.6 5.5 5.5 5.4 5.3 5.3 5.3 5.0 5.1
5.3 5.1 5.2 5.5 5.6 5.6 5.6 5.5 5.3 5.1 5.0 5.2 5.0 4.8 5.4 5.4 5.6 5.7 5.5 5.5 5.5 5.6 5.9 5.3 6.1 5.9 6.0 5.4 4.9 5.8 6.0 5.9 5.8 5.8 5.7 5.7 5.7 5.4 5.4 5.4 5.2 5.2 5.1
5.5 5.2 5.2 5.2 5.4 5.5 5.4 5.3 5.2 5.3 5.2 5.1 4.8 4.9 5.4 5.4 5.5 5.7 5.7 5.4 5.5 5.6 5.8 5.6 5.5 5.5 5.5 5.4 5.9 5.6 5.8 5.7 5.7 5.4 5.4 5.5 5.7 5.6 5.4 5.4 5.3 5.2 5.2
5.5 5.3 5.2 5.2 5.3 5.4 5.3 5.2 5.1 5.2 5.3 5.1 5.2 5.2 5.4 5.5 5.4 5.3 5.3 5.4 5.5 5.6 5.5 5.6 5.3 5.3 5.7 5.7 5.7 5.3 5.6 5.5 5.3 5.5 5.5 5.4 5.4 5.5 5.4 5.4 5.4 5.3 5.3
5.5 5.3 5.3 5.2 5.3 5.2 5.2 5.3 5.3 5.3 5.3 5.4 5.4 5.3 5.6 5.7 5.5 5.4 5.6 5.4 5.6 5.6 5.6 5.4 5.1 5.0 5.3 5.4 5.4 5.2 5.4 5.4 5.4 5.4 5.3 5.2 5.1 5.1 5.4 5.3 5.4 5.4 5.2
5.6 5.5 5.2 5.3 5.1 5.3 5.3 5.4 5.6 5.6 5.6 5.5 5.6 5.7 5.6 5.6 5.6 5.6 5.4 5.5 5.6 5.4 5.4 5.1 4.8 4.8 5.0 5.2 5.2 5.2 5.2 5.5 5.4 5.2 5.0 5.0 4.9 4.7 5.0 5.1 5.2 5.4 5.3
5.7 5.6 5.1 5.1 5.3 5.3 5.3 5.5 5.5 5.6 5.7 5.6 5.4 5.4 5.4 5.3 5.3 5.3 5.5 5.5 5.5 5.3 5.3 5.2 5.1 5.1 5.2 5.3 5.3 5.3 5.2 5.4 5.3 5.2 5.1 5.1 4.8 4.9 4.8 4.9 4.9 4.9 4.9
5.5 5.4 5.2 5.1 5.1 5.4 5.5 5.5 5.6 5.5 5.5 5.5 5.5 5.3 5.3 5.2 5.1 5.1 5.2 5.3 5.4 5.4 5.4 5.3 5.3 5.3 5.4 5.4 5.1 5.1 4.9 4.8 4.7 4.9 4.5 4.9 4.9 4.8 4.8 4.9 4.9 4.8 4.6
5.3 5.5 5.3 5.4 5.3 5.3 5.3 5.5 5.5 5.6 5.5 5.4 5.2 5.3 5.4 5.3 5.3 5.3 5.3 5.4 5.2 5.3 5.0 5.2 5.4 5.3 5.2 5.0 4.9 4.7 4.9 4.6 4.9 4.9 4.9 4.9 5.0 4.9 5.0 5.0 4.8 4.9 4.8
5.4 5.5 5.5 5.4 5.3 5.4 5.5 5.6 5.6 5.4 5.3 5.1 5.0 5.0 4.9 4.8 4.8 5.0 5.0 5.1 4.9 4.9 5.1 5.2 5.3 5.0 4.9 4.9 4.9 4.8 5.0 5.0 5.0 5.1 5.0 4.8 4.9 5.0 4.7 4.7 4.8 4.9 5.4
5.5 5.4 5.5 5.6 5.4 5.3 5.3 5.2 5.1 5.2 5.2 5.1 5.0 4.9 4.6 4.3 4.5 4.5 4.6 4.8 4.8 4.7 5.0 5.0 4.9 4.9 4.9 4.8 5.0 5.1 5.1 4.8 4.8 4.7 4.6 4.6 4.7 4.7 4.6 4.7 4.7 4.7 4.9
5.3 5.2 5.1 5.0 5.1 5.0 4.9 4.8 4.8 4.8 4.8 4.9 5.0 4.9 4.6 4.5 4.5 4.6 4.6 4.5 4.4 4.4 4.4 4.4 4.6 4.7 4.8 4.9 4.8 4.7 4.8 4.8 4.6 4.7 4.6 4.7 4.6 4.6 4.5 4.6 4.6 4.8 4.8
5.0 4.9 4.8 4.8 4.9 4.9 4.7 4.6 4.6 4.6 4.6 4.5 4.5 4.6 4.7 4.8 4.6 4.4 4.4 4.5 4.4 4.6 4.6 4.7 4.7 4.8 4.7 4.4 4.7 4.7 4.7 4.6 4.5 4.7 4.6 4.6 4.7 4.7 4.8 4.9 5.1 5.0 5.1
5.0 4.7 4.6 4.6 4.6 4.6 4.5 4.4 4.5 4.5 4.5 4.6 4.5 4.4 4.5 4.5 4.6 4.6 4.5 4.5 4.5 4.6 4.6 4.7 4.7 4.7 4.8 4.8 4.6 4.9 4.8 4.7 4.6 4.5 4.7 4.8 4.9 4.9 4.8 4.7 4.7 4.8 4.8
4.4 4.4 4.5 4.5 4.5 4.6 4.7 4.6 4.6 4.5 4.6 4.6 4.7 4.6 4.6 4.6 4.5 4.4 4.3 4.4 4.4 4.3 4.3 4.4 4.7 4.9 4.8 4.8 4.9 4.8 4.8 4.8 5.1 5.0 4.9 5.1 4.9 4.8 4.9 5.0 5.0 5.0 4.9
4.7 4.5 4.5 4.5 4.6 4.7 4.8 4.7 4.7 4.9 4.9 4.9 4.8 4.8 4.7 4.6 4.5 4.4 4.4 4.4 4.4 4.4 4.3 4.3 4.5 4.8 4.9 5.0 5.1 5.2 5.1 5.0 4.9 5.3 5.4 5.1 5.2 5.2 5.2 5.0 4.9 4.9 4.6

GFSMA_con_lapse57_024.txt.gz
Lapse_Rate
6.0 5.7 5.8 6.0 5.9 5.7 5.5 5.8 5.9 5.9 6.1 5.8 5.9 5.9 5.8 5.9 6.0 5.8 6.1 6.0 5.7 5.7 5.6 5.6 5.7 5.8 5.4 4.9 5.4 5.8 5.7 5.4 5.4 5.4 5.2 5.2 5.1 5.0 5.0 5.2 5.3 5.4 5.3
5.7 5.7 5.7 5.9 5.7 5.4 5.6 5.7 5.8 5.4 5.4 5.5 5.8 5.9 6.0 6.0 6.0 6.1 6.1 6.1 5.8 5.8 5.7 5.7 5.7 5.7 5.4 5.1 5.5 5.5 5.8 5.6 5.5 5.5 5.4 5.3 5.1 4.9 4.9 4.9 5.1 5.3 5.3
6.0 6.0 6.0 6.1 5.7 5.1 5.6 5.7 5.6 5.9 5.4 5.4 5.4 5.7 5.4 5.6 5.8 6.0 6.1 5.8 5.6 5.8 5.9 5.8 5.7 5.5 5.3 5.6 5.3 5.6 5.7 5.7 5.6 5.6 5.5 5.4 5.2 5.0 5.0 4.8 4.9 5.0 5.1
5.9 5.9 5.9 5.8 5.9 5.3 5.3 5.4 5.6 5.6 5.4 5.3 5.0 5.9 6.1 5.8 5.8 6.0 6.0 6.1 6.2 6.2 6.1 5.9 5.8 5.8 5.5 5.6 5.4 5.7 5.6 5.4 5.5 5.5 5.4 5.4 5.3 5.1 4.9 4.9 4.9 5.2 5.1
5.9 5.8 5.9 5.8 5.7 5.6 5.4 5.6 6.0 5.4 5.5 5.6 5.7 5.3 5.2 5.5 5.5 6.1 6.0 5.9 6.1 6.2 6.1 6.0 6.1 6.0 5.8 5.6 5.7 5.5 5.2 5.4 5.3 5.3 5.4 5.3 5.3 5.2 5.1 5.1 5.0 5.0 5.1
5.6 5.7 5.7 5.6 5.5 5.6 5.5 5.1 5.0 5.1 5.3 5.1 5.5 5.7 5.7 6.1 5.7 5.6 6.0 5.9 5.9 6.1 6.1 6.0 6.1 5.7 5.5 5.6 5.6 5.6 5.3 5.5 5.0 5.2 5.4 5.3 5.3 5.1 5.1 5.0 5.0 5.0 5.0
5.4 5.5 5.6 5.3 4.9 5.1 5.3 5.5 5.3 5.4 5.2 5.0 5.7 5.6 5.4 5.4 5.6 5.3 5.7 5.9 5.8 5.6 5.5 5.9 5.9 5.9 5.5 5.2 5.1 5.7 5.2 4.9 5.2 5.2 5.3 5.2 5.1 5.2 5.1 5.2 5.2 5.1 5.1
5.5 5.4 5.5 5.3 5.3 5.1 4.8 5.1 5.2 5.3 5.3 5.3 5.2 5.1 5.3 5.2 5.0 5.1 4.8 5.5 5.9 5.6 5.6 5.5 5.9 5.9 5.6 5.4 5.5 5.2 5.5 5.4 5.2 5.3 5.4 5.3 5.2 5.2 5.2 5.1 5.2 5.2 5.3
5.7 5.7 5.6 5.6 5.3 5.1 5.1 5.1 4.9 5.0 5.1 4.9 5.1 5.2 5.2 5.4 4.9 5.1 5.6 5.2 5.7 6.0 5.9 6.0 5.9 5.9 5.8 5.9 5.8 5.8 5.7 5.8 5.6 5.5 5.5 5.6 5.3 5.4 5.3 5.2 5.2 5.3 5.2
5.7 5.5 5.3 5.4 5.3 5.3 5.2 5.3 5.2 5.2 5.0 5.1 5.1 5.1 5.0 5.1 5.1 5.3 5.7 5.4 5.6 6.0 5.8 5.8 5.8 5.5 5.4 5.3 5.3 5.4 5.2 5.4 5.6 5.5 5.3 5.4 5.4 5.5 5.6 5.3 5.3 5.2 5.1
5.7 5.6 5.4 5.3 5.1 5.1 5.3 5.5 5.5 5.5 5.4 5.2 5.2 4.9 5.0 4.8 5.0 5.0 5.4 5.5 5.6 5.5 5.5 5.6 5.7 5.3 4.9 5.7 5.4 5.4 5.4 5.1 5.2 5.7 5.3 5.4 5.4 5.5 5.5 5.5 5.3 5.2 5.1
5.7 5.5 5.5 5.2 5.2 5.2 5.4 5.6 5.6 5.5 5.3 5.3 5.3 4.9 5.0 4.8 4.8 5.2 5.5 5.4 5.6 5.3 5.5 5.5 5.5 5.3 5.5 5.2 5.2 4.2 4.9 4.9 5.4 5.6 5.4 5.6 5.5 5.4 5.5 5.5 5.4 5.4 5.4
5.5 5.6 5.3 5.3 5.3 5.3 5.4 5.5 5.4 5.3 5.4 5.3 5.3 5.0 4.8 4.6 4.9 5.4 5.4 5.4 5.6 5.4 5.1 5.2 5.2 5.5 4.8 4.8 4.8 5.1 4.6 5.1 5.1 5.5 5.6 5.5 5.4 5.4 5.3 5.3 5.3 5.4 5.3
5.7 5.7 5.4 5.4 5.3 5.4 5.5 5.4 5.4 5.3 5.4 5.5 5.3 5.2 5.0 4.7 5.1 4.9 5.2 5.4 5.6 5.6 5.3 4.9 5.4 5.1 5.2 5.2 5.4 5.3 5.2 5.2 5.4 5.4 5.4 5.5 5.5 5.4 5.2 5.1 5.0 5.2 5.2
5.7 5.7 5.5 5.5 5.5 5.4 5.6 5.7 5.5 5.4 5.3 5.4 5.3 5.3 5.3 5.0 5.3 5.3 5.5 5.6 5.7 5.7 5.5 5.5 5.2 5.0 5.1 5.1 5.2 5.1 5.2 5.3 5.4 5.6 5.6 5.6 5.3 5.2 5.0 4.9 4.6 4.9 5.0
5.7 5.6 5.3 5.4 5.8 5.5 5.4 5.6 5.5 5.7 5.6 5.4 5.5 5.5 5.3 5.4 5.4 5.4 5.4 5.6 5.8 5.7 5.6 5.4 5.2 5.2 5.2 5.0 4.9 4.9 5.1 5.4 5.4 5.5 5.5 5.3 5.2 5.3 5.1 4.9 4.8 4.8 5.0
5.7 5.5 5.4 5.6 5.6 5.5 5.4 5.4 5.4 5.5 5.6 5.6 5.6 5.6 5.7 5.6 5.6 5.5 5.4 5.2 5.3 5.3 5.3 5.3 5.3 5.3 5.3 5.4 5.1 5.1 5.2 5.2 5.2 5.2 4.7 4.7 4.9 5.1 5.0 5.0 4.9 5.2 5.1
5.6 5.5 5.6 5.8 5.7 5.4 5.3 5.1 5.2 5.4 5.4 5.4 5.3 5.3 5.6 5.5 5.5 5.4 5.3 5.4 5.3 5.2 5.1 5.3 5.0 5.0 4.9 5.1 5.0 4.9 5.2 5.5 5.1 4.7 4.9 4.9 5.0 4.8 4.8 4.8 4.6 4.8 4.7
5.6 5.5 5.5 5.6 5.8 5.7 5.5 5.2 5.0 5.0 4.8 4.8 4.9 4.9 4.9 5.1 5.0 5.2 5.3 5.5 5.4 5.4 5.1 4.9 5.0 4.9 4.9 4.6 4.7 4.7 5.1 5.2 4.8 4.6 5.0 4.9 4.9 5.0 4.9 4.9 5.1 5.1 5.0
5.6 5.4 5.5 5.4 5.4 5.4 5.3 5.0 4.9 4.9 4.8 4.7 4.6 4.5 4.4 4.5 4.6 4.7 4.8 4.8 5.1 5.2 5.0 4.8 4.8 4.6 4.7 4.6 4.6 4.6 4.7 4.6 4.7 4.7 4.8 4.8 4.8 4.6 4.5 4.6 4.6 4.7 4.6
5.5 5.4 5.2 5.2 5.2 5.2 5.2 5.1 4.9 4.8 4.8 4.8 4.7 4.7 4.8 4.5 4.2 4.3 4.3 4.4 4.5 4.6 4.7 4.7 4.4 4.7 4.7 4.6 4.6 4.5 4.5 4.3 4.7 4.6 4.6 4.6 4.5 4.7 4.6 4.6 4.7 4.6 4.7
5.5 5.3 5.0 4.9 5.0 5.0 5.0 4.9 4.8 4.9 4.9 4.8 4.7 4.6 4.7 4.8 4.7 4.6 4.6 4.7 4.7 4.4 4.2 4.3 4.4 4.3 4.5 4.6 4.7 4.8 4.7 4.6 4.7 4.7 4.6 4.6 4.6 4.7 4.6 4.7 4.8 4.8 4.8
5.4 5.0 4.9 4.8 4.8 4.9 4.8 4.8 4.9 5.0 4.9 4.9 4.9 4.9 4.7 4.7 4.8 4.8 4.7 4.6 4.4 4.4 4.5 4.6 4.6 4.6 4.6 4.6 4.6 4.4 4.4 4.4 4.3 4.7 4.7 4.7 4.7 4.6 4.7 4.8 4.9 5.0 4.9
5.2 5.1 4.7 4.6 4.7 4.8 4.8 4.7 4.8 4.9 4.8 4.7 4.8 4.9 4.9 4.8 4.7 4.7 4.7 4.7 4.6 4.4 4.4 4.5 4.4 4.4 4.4 4.5 4.4 4.3 4.3 4.6 4.9 5.0 4.9 4.6 4.7 5.0 5.0 4.9 4.9 4.9 4.9
5.3 5.2 4.6 4.5 4.5 4.5 4.6 4.7 4.9 4.8 4.7 4.9 4.9 4.8 4.8 4.8 4.9 4.9 4.6 4.6 4.6 4.4 4.4 4.3 4.4 4.5 4.5 4.6 4.7 4.8 4.9 5.0 5.2 5.3 5.1 5.3 5.2 5.3 5.3 5.2 5.3 5.3 5.2
5.2 5.1 4.7 4.6 4.4 4.5 4.1 4.6 4.7 5.0 4.9 4.9 5.0 5.1 5.1 5.0 4.9 4.9 4.9 4.7 4.5 4.5 4.3 4.1 4.2 4.4 4.6 4.7 4.9 5.1 5.3 5.5 5.8 6.0 5.4 5.5 5.4 5.4 5.3 5.2 4.9 4.8 4.9

GFSMA_con_lapse57_030.txt.gz
Lapse_Rate
5.8 5.7 5.8 5.8 5.7 5.6 5.5 5.4 5.5 5.7 5.5 5.6 5.7 5.6 5.4 5.5 5.9 5.8 5.4 5.3 5.7 5.6 5.6 5.7 5.8 5.7 5.4 5.4 5.2 5.2 5.2 5.5 5.6 5.4 5.5 5.5 5.4 5.3 5.4 5.3 5.3 5.2 5.1
5.5 5.5 5.8 5.7 5.9 6.0 5.7 5.4 5.5 5.6 5.5 5.4 5.6 5.7 5.6 5.5 5.7 5.9 5.6 5.4 5.2 5.4 5.4 5.4 5.4 5.4 5.5 5.4 5.2 4.9 4.5 5.4 5.5 5.2 5.3 5.5 5.5 5.3 5.2 5.3 5.1 5.1 5.3
5.2 5.5 5.7 5.8 5.7 5.8 5.7 5.4 5.2 5.1 5.4 5.6 5.6 5.5 5.9 5.7 5.6 5.8 5.8 5.7 5.4 5.3 5.4 5.4 5.4 5.4 5.7 5.5 5.2 5.0 5.1 5.4 5.3 5.2 5.2 5.4 5.5 5.4 5.4 5.2 5.1 5.0 5.0
5.4 5.7 5.8 5.6 5.3 5.5 5.5 5.4 5.2 5.2 5.4 5.5 5.6 5.5 5.2 5.5 5.8 5.9 6.1 6.1 5.7 5.5 5.4 5.3 5.4 5.4 5.6 5.6 5.5 5.3 5.2 5.2 5.4 5.5 5.3 5.3 5.3 5.4 5.3 5.3 5.2 5.1 5.1
5.8 5.8 5.7 5.6 5.4 5.6 5.4 5.5 5.4 5.3 5.2 5.2 5.4 5.2 5.9 5.8 5.6 5.8 5.7 5.9 5.9 5.9 5.8 5.4 5.3 5.6 5.6 5.5 5.6 5.5 5.4 5.4 5.4 5.3 5.4 5.4 5.3 5.1 5.3 5.1 5.1 5.1 5.0
5.5 5.7 5.7 5.6 5.6 5.6 5.7 5.3 5.4 5.3 5.4 5.5 5.6 5.5 5.8 5.8 5.6 5.7 5.6 5.7 5.6 5.9 6.0 5.9 5.8 5.7 5.6 5.6 5.5 5.5 5.5 5.4 5.3 5.2 5.0 5.0 5.1 5.0 5.1 4.9 4.8 4.8 5.0
5.5 5.4 5.4 5.2 5.2 5.4 5.4 5.4 5.2 5.2 5.3 5.4 5.5 5.5 5.5 5.5 5.4 5.5 5.3 6.0 5.9 5.9 6.1 6.1 6.0 5.9 5.7 5.7 5.7 5.7 5.5 5.5 5.3 5.3 5.1 4.9 4.9 5.1 4.9 5.1 5.0 4.8 4.8
5.4 5.2 5.4 5.5 5.2 4.9 5.1 5.3 5.4 5.2 5.3 5.2 5.2 5.3 5.5 5.6 5.7 5.1 5.4 6.0 5.7 5.7 6.1 5.9 6.1 6.1 6.0 5.6 5.7 5.7 5.5 5.4 5.3 5.3 5.1 5.0 5.1 5.1 5.0 4.9 4.9 4.9 4.7
5.5 5.6 5.5 5.5 5.4 5.1 4.9 5.0 5.0 5.3 5.3 5.3 5.3 5.1 5.3 5.5 5.5 5.2 5.5 5.3 5.4 5.8 5.7 5.7 6.1 6.1 5.9 5.8 5.7 5.7 5.5 5.4 5.2 5.3 5.3 5.2 5.0 5.1 5.0 5.0 4.9 4.9 4.9
5.8 5.8 5.8 5.4 5.3 5.2 5.0 4.9 5.2 5.3 5.2 5.4 5.3 5.3 5.3 5.2 5.5 5.7 5.5 5.2 5.5 5.4 5.3 5.7 5.9 5.9 5.9 5.8 6.0 5.8 5.7 5.4 5.3 5.2 5.2 5.2 5.1 5.1 5.0 5.0 5.1 5.0 5.0
5.7 5.6 5.4 5.3 5.3 5.3 5.4 5.5 5.5 5.6 5.4 5.4 5.7 5.5 5.3 5.4 5.3 5.4 5.3 5.4 5.5 5.4 5.5 5.6 5.8 5.7 5.7 5.7 5.6 5.4 5.3 5.2 5.2 5.0 5.3 5.1 5.2 5.2 5.2 5.1 5.5 5.3 5.2
5.6 5.5 5.5 5.5 5.4 5.1 5.4 5.5 5.7 5.6 5.5 5.6 5.6 5.7 5.6 5.4 5.2 5.2 5.1 5.2 5.4 5.3 5.5 5.7 5.8 5.5 5.7 5.5 5.5 5.5 5.7 5.3 5.4 4.9 5.2 5.1 5.1 5.1 5.4 5.3 5.2 5.2 5.2
5.4 5.6 5.5 5.4 5.2 5.2 5.5 5.5 5.8 5.6 5.7 5.6 5.4 5.4 5.5 5.5 5.3 5.2 5.1 5.2 5.2 5.4 5.5 5.8 5.8 5.5 5.5 5.5 5.4 5.6 5.4 5.4 5.4 5.0 4.9 5.2 5.3 5.4 5.4 5.4 5.3 5.4 5.3
5.7 5.7 5.4 5.4 5.4 5.3 5.3 5.5 5.6 5.7 5.4 5.5 5.6 5.5 5.5 5.6 5.3 5.1 5.2 5.2 5.3 5.3 5.5 6.0 5.7 5.5 5.4 5.4 5.5 5.4 5.4 5.5 5.3 5.3 5.1 5.2 5.1 5.1 5.2 5.3 5.2 5.3 5.4
5.7 5.6 5.5 5.4 5.4 5.3 5.4 5.4 5.6 5.4 5.5 5.5 5.6 5.4 5.3 5.3 5.4 5.4 5.1 5.1 5.4 5.1 5.2 5.7 5.8 5.6 5.7 5.6 5.4 5.3 5.4 5.4 5.5 5.2 5.3 5.3 5.2 5.1 5.0 5.0 5.0 4.9 5.2
5.6 5.6 5.7 5.5 5.4 5.3 5.3 5.4 5.4 5.6 5.6 5.7 5.6 5.6 5.4 5.4 5.4 5.4 5.3 5.4 5.1 5.2 5.1 5.6 5.6 5.6 5.4 5.5 5.3 5.0 5.2 5.3 5.3 5.3 5.2 5.2 5.1 5.1 4.9 5.0 4.9 4.9 5.0
5.6 5.4 5.5 5.5 5.5 5.3 5.4 5.2 5.2 5.4 5.5 5.2 5.1 5.2 5.4 5.3 5.3 5.3 5.4 5.2 5.3 5.4 5.2 5.3 5.3 5.3 5.3 5.3 5.2 5.3 5.1 4.9 4.9 4.7 4.6 4.4 4.8 4.6 4.7 4.6 4.8 5.1 5.1
5.5 5.3 5.3 5.4 5.4 5.3 5.4 5.3 5.3 5.3 5.3 5.3 5.1 5.0 5.0 5.0 5.1 5.2 5.1 5.2 5.1 5.0 5.0 4.9 5.0 5.0 5.1 5.1 5.0 4.9 5.0 4.5 4.7 4.6 4.5 4.3 4.3 4.5 4.6 4.8 4.6 4.6 4.4
5.5 5.4 5.3 5.2 5.1 5.2 5.2 5.0 5.0 5.0 5.1 5.2 5.1 5.0 5.0 4.9 4.8 4.6 4.7 5.0 5.0 4.9 5.0 5.1 5.0 4.9 4.7 4.7 4.6 4.6 4.6 4.4 4.4 4.3 4.3 4.3 4.7 4.7 4.6 4.7 4.6 4.7 4.6
5.5 5.3 5.3 5.2 5.0 5.0 5.0 5.0 4.9 5.0 5.0 5.1 5.2 5.2 5.0 4.9 4.8 4.8 4.7 4.6 4.6 4.6 4.7 4.8 4.8 4.6 4.6 4.5 4.5 4.5 4.6 4.5 4.6 4.6 4.5 4.4 4.5 4.4 4.6 4.7 4.8 4.7 4.6
5.5 5.2 5.2 5.1 5.0 5.0 4.9 5.0 5.0 5.0 5.0 5.1 5.1 5.2 5.2 5.0 5.0 5.0 4.9 4.9 4.9 4.8 4.8 4.7 4.6 4.3 4.5 4.5 4.2 4.4 4.3 4.4 4.5 4.7 4.6 4.7 4.8 4.8 4.7 4.8 4.8 4.6 4.7
5.2 5.2 5.3 5.0 4.9 4.9 4.8 4.8 5.0 4.9 4.9 5.0 5.0 5.2 5.3 5.4 5.2 5.1 5.0 4.9 4.8 4.8 4.7 4.7 4.6 4.5 4.5 4.5 4.5 4.4 4.8 4.9 4.5 4.1 4.1 4.3 4.5 4.8 5.0 5.1 5.2 5.1 5.1
5.3 5.1 5.2 4.9 4.8 4.7 4.6 4.6 4.8 4.9 4.8 4.9 4.8 4.7 4.8 4.9 4.8 4.8 4.7 4.7 4.8 4.9 4.9 4.9 5.0 4.9 4.8 4.8 4.6 4.6 4.7 4.6 4.3 4.2 4.3 4.5 4.6 4.9 5.1 5.2 5.2 5.2 5.3
5.4 5.1 5.1 4.9 4.8 4.6 4.6 4.7 4.8 4.7 4.6 4.7 4.7 4.5 4.4 4.4 4.5 4.4 4.4 4.5 4.7 4.8 4.8 5.0 5.0 4.9 4.8 4.7 4.7 4.4 4.3 4.3 4.4 4.4 4.4 4.5 4.8 5.0 5.1 5.4 5.6 5.6 5.5
5.5 4.9 5.1 5.1 4.8 4.8 4.9 4.8 4.7 4.7 4.8 4.9 4.9 4.9 4.6 4.6 4.4 4.4 4.3 4.4 4.5 4.7 5.0 4.9 4.8 4.9 4.6 4.6 4.5 4.4 4.6 4.6 4.6 4.6 4.8 5.3 5.4 5.4 5.5 5.6 5.6 5.5 5.4
5.7 5.2 5.1 4.8 5.0 5.1 5.0 4.8 4.7 4.5 4.7 4.8 4.9 4.8 4.7 4.3 4.1 4.1 4.2 4.2 4.5 4.8 5.1 5.2 4.8 4.6 4.5 4.4 4.4 4.7 5.0 5.1 5.3 5.3 5.5 5.4 5.3 5.3 5.5 5.6 5.5 5.3 5.2

GFSMA_con_lapse57_033.txt.gz
Lapse_Rate
5.9 5.7 5.9 5.9 5.8 6.1 6.1 5.9 5.7 5.5 5.5 5.3 5.2 5.4 5.5 5.6 5.7 5.7 5.3 5.7 5.7 5.5 5.4 5.3 5.4 5.5 5.4 5.2 5.1 5.1 5.0 5.0 5.2 5.2 5.3 5.4 5.4 5.3 5.2 5.1 5.1 5.2 5.1
5.6 5.6 5.8 5.8 5.7 5.8 6.1 6.0 5.9 5.7 5.5 5.5 5.5 5.4 5.5 5.7 5.7 5.5 5.5 5.6 6.0 5.7 5.5 5.3 5.3 5.3 5.2 5.1 5.1 5.1 4.9 4.6 4.9 5.2 5.1 5.2 5.1 5.2 5.3 5.1 4.9 4.8 4.9
5.4 5.3 5.5 5.6 5.5 5.5 5.9 6.2 5.8 5.5 5.4 5.4 5.3 5.4 5.5 5.5 5.8 5.7 5.5 5.6 5.9 6.1 5.8 5.6 5.4 5.3 5.2 5.1 5.2 5.3 5.1 4.9 5.1 5.2 5.2 5.3 5.2 5.0 5.0 5.2 5.0 4.9 4.9
5.5 5.5 5.4 5.6 5.6 5.6 5.7 5.7 5.6 5.4 5.2 5.3 5.4 5.6 5.5 5.6 5.7 5.7 5.6 5.4 5.5 5.7 5.7 5.7 5.4 5.3 5.2 5.2 5.1 5.3 5.3 5.3 5.3 5.1 5.0 5.3 5.3 5.2 5.1 5.0 5.0 5.1 5.0
5.6 5.5 5.6 5.5 5.4 5.7 5.6 5.5 5.4 5.2 5.3 5.1 5.3 5.3 5.5 5.8 5.6 5.5 5.6 5.6 5.6 5.7 5.8 5.7 5.5 5.4 5.4 5.4 5.2 5.4 5.3 5.1 5.2 5.1 5.0 5.0 5.3 5.3 5.2 5.0 4.9 4.9 5.0
5.6 5.4 5.4 5.5 5.5 5.6 5.5 5.4 5.4 5.2 5.1 5.0 5.3 5.4 5.6 5.7 5.6 6.1 5.8 5.8 5.8 5.8 5.9 5.9 5.8 5.7 5.5 5.6 5.5 5.4 5.3 5.3 5.2 5.1 5.1 5.1 5.0 4.9 4.9 4.9 5.0 4.8 4.8
5.9 5.7 5.5 5.5 5.6 5.6 5.5 5.5 5.4 5.3 5.4 5.1 5.2 5.5 5.6 5.6 5.7 5.8 6.0 6.1 5.9 5.9 6.0 6.0 5.9 5.8 5.8 5.8 5.6 5.4 5.3 5.3 5.4 5.2 5.1 5.0 4.9 4.9 4.8 4.8 4.9 4.9 4.8
5.6 5.5 5.4 5.3 5.3 5.3 5.2 5.4 5.5 5.5 5.5 5.2 5.3 5.1 5.3 5.3 5.7 5.7 5.8 5.8 5.9 6.0 6.3 6.2 6.2 5.8 5.8 5.9 5.7 5.5 5.6 5.4 5.1 5.4 5.3 5.4 5.2 5.1 5.0 4.9 5.0 5.0 5.0
5.3 5.3 5.2 5.2 5.1 5.0 5.2 5.5 5.5 5.4 5.4 5.2 5.2 5.2 5.2 5.6 5.4 5.5 5.9 5.7 5.8 5.9 6.0 6.0 6.1 5.8 5.6 5.8 5.8 5.9 5.8 5.8 5.7 5.5 5.5 5.0 5.2 5.1 5.1 5.0 5.0 5.1 5.1
5.1 5.3 5.3 5.3 5.2 5.3 5.2 5.2 5.5 5.6 5.6 5.3 5.3 5.3 5.4 5.2 5.3 5.2 5.7 5.6 5.5 5.5 5.5 5.6 5.8 5.8 5.9 6.0 5.8 5.7 5.6 5.6 5.4 5.4 5.2 5.3 5.1 5.3 5.2 5.1 5.0 5.0 5.0
5.4 5.7 5.7 5.7 5.4 5.2 5.3 5.4 5.5 5.4 5.5 5.7 5.6 5.4 5.3 5.2 5.3 5.3 5.5 5.6 5.5 5.2 5.6 5.7 5.8 5.9 6.0 5.9 5.8 5.5 5.4 5.6 5.7 5.3 5.4 5.5 5.3 5.0 5.1 5.0 5.0 5.1 5.1
5.6 5.7 5.6 5.4 5.3 5.3 5.4 5.3 5.3 5.4 5.4 5.6 5.8 5.7 5.4 5.0 5.3 5.4 5.6 5.3 5.3 5.5 5.4 5.5 5.6 5.7 5.7 5.6 5.7 5.7 5.8 5.5 5.5 5.0 5.2 5.1 4.6 5.0 5.1 4.9 5.0 5.1 5.1
5.5 5.4 5.4 5.4 5.4 5.4 5.4 5.3 5.2 5.3 5.4 5.4 5.5 5.6 5.5 5.3 5.4 5.5 5.6 5.4 5.1 5.3 5.3 5.6 5.7 5.7 5.8 5.6 5.5 5.7 5.8 5.6 5.4 5.2 5.3 4.6 4.8 4.9 4.8 4.9 5.1 5.4 5.3
5.5 5.5 5.4 5.3 5.5 5.4 5.3 5.3 5.3 5.3 5.4 5.4 5.4 5.4 5.6 5.7 5.8 5.7 5.6 5.3 5.0 5.1 5.3 5.8 5.7 5.8 5.8 5.5 5.4 5.5 5.4 5.3 5.2 5.1 4.8 4.8 4.6 5.1 5.1 5.1 5.1 5.1 5.2
5.5 5.4 5.5 5.5 5.5 5.4 5.3 5.2 5.2 5.3 5.5 5.5 5.4 5.4 5.5 5.6 5.5 5.7 5.4 5.2 5.1 5.2 5.4 5.7 5.5 5.6 5.6 5.5 5.5 5.4 5.4 5.2 5.3 5.5 5.2 5.1 4.9 5.1 5.2 5.0 5.1 5.1 5.1
5.5 5.6 5.7 5.7 5.6 5.4 5.1 5.1 5.1 5.3 5.3 5.3 5.4 5.6 5.5 5.5 5.4 5.3 5.0 5.2 5.4 5.3 5.3 5.3 5.3 5.5 5.5 5.5 5.5 5.4 5.4 5.4 5.3 5.3 5.3 5.2 5.2 5.2 5.2 5.2 5.4 5.1 4.9
5.6 5.6 5.6 5.7 5.5 5.4 5.1 5.1 5.0 5.1 5.1 5.0 5.3 5.5 5.3 5.2 5.2 5.2 5.0 5.2 5.3 5.4 5.4 5.5 5.4 5.5 5.4 5.5 5.6 5.5 5.2 5.2 5.1 5.1 4.7 4.9 4.8 4.8 4.6 4.9 5.0 4.9 4.8
5.6 5.5 5.5 5.5 5.5 5.3 5.1 5.0 4.9 4.8 4.8 5.0 5.0 5.0 4.9 4.9 4.9 4.9 4.8 4.8 4.9 4.9 5.1 5.2 5.0 5.1 5.2 5.2 5.2 5.0 4.8 4.8 4.6 4.3 4.4 4.4 4.3 4.4 4.7 4.8 4.7 4.7 4.7
5.4 5.5 5.3 5.3 5.3 5.2 5.1 4.9 4.7 4.7 4.8 4.9 5.0 5.1 5.1 5.0 4.9 4.8 4.7 4.8 4.7 4.6 4.6 4.6 4.8 4.8 4.8 4.8 4.7 4.6 4.5 4.4 4.5 4.3 4.4 4.4 4.3 4.3 4.1 4.4 4.3 4.3 4.4
5.5 5.4 5.2 5.2 5.1 5.1 4.9 4.9 4.8 4.6 4.7 4.9 5.1 5.1 5.1 5.1 5.0 4.9 4.9 4.9 4.8 4.8 4.7 4.6 4.6 4.5 4.6 4.6 4.5 4.4 4.6 4.4 4.2 4.4 4.7 4.9 4.8 4.7 4.7 4.5 4.4 4.6 4.3
5.5 5.2 5.1 5.1 5.0 4.8 4.9 4.9 4.9 4.9 4.9 5.0 5.0 5.1 5.1 5.1 5.0 4.9 4.8 4.7 4.6 4.6 4.6 4.6 4.5 4.4 4.2 4.3 4.4 4.3 4.4 4.2 4.3 4.5 4.5 4.5 4.4 4.5 4.6 4.8 4.9 4.9 4.7
5.6 5.3 5.2 5.0 4.9 4.8 4.8 4.8 4.8 4.8 4.8 4.8 4.9 4.8 4.7 4.7 4.6 4.6 4.6 4.5 4.6 4.6 4.5 4.5 4.4 4.4 4.2 4.1 4.2 4.2 4.3 4.3 4.5 4.6 4.5 4.4 4.3 4.4 4.6 4.7 4.7 4.7 4.8
5.4 5.4 5.2 5.1 4.8 4.7 4.7 4.8 4.6 4.7 4.7 4.8 4.9 4.9 4.9 4.8 4.8 4.8 4.6 4.5 4.5 4.4 4.3 4.3 4.3 4.4 4.4 4.4 4.3 4.4 4.5 4.7 4.5 4.0 4.0 4.2 4.4 4.6 4.7 4.7 4.8 5.0 5.1
5.4 5.4 5.4 5.3 4.8 4.7 4.9 5.0 5.0 4.9 4.8 4.9 5.0 5.1 5.2 5.0 4.9 4.8 4.7 4.6 4.5 4.4 4.4 4.5 4.6 4.5 4.6 4.6 4.6 4.7 4.8 4.6 4.4 4.3 4.2 4.4 4.6 4.8 5.0 5.1 5.2 5.5 5.7
5.7 5.1 5.4 5.6 5.2 4.9 5.0 4.9 4.8 5.0 5.0 4.9 5.0 5.0 5.0 4.9 4.8 4.7 4.6 4.6 4.6 4.5 4.5 4.6 4.8 4.7 4.7 4.8 4.6 4.6 4.7 4.7 4.6 4.5 4.7 4.8 5.0 5.3 5.5 5.6 5.6 5.6 5.6
5.1 5.4 5.1 5.2 5.2 5.1 5.0 4.9 4.8 4.8 4.9 5.0 4.8 4.8 4.8 4.6 4.5 4.5 4.5 4.4 4.4 4.4 4.4 4.6 4.7 4.9 4.9 4.7 4.7 4.7 4.7 4.8 5.0 5.1 5.2 5.4 5.5 5.6 5.6 5.7 5.6 5.5 5.4